Weather reports worldwide

Advertisment
Phoenix, az, United States of America (2072126): temperature & dewpoint: 31.05.2020 10:00:00 - 06.06.2020 10:00:00 (MST)Phoenix, az, United States of America (2072126): wind speed: 31.05.2020 10:00:00 - 06.06.2020 10:00:00 (MST)Phoenix, az, United States of America (2072126): wind direction: 31.05.2020 10:00:00 - 06.06.2020 10:00:00 (MST)Phoenix, az, United States of America (2072126): reduced air pressure: 31.05.2020 10:00:00 - 06.06.2020 10:00:00 (MST)Phoenix, az, United States of America (2072126): visibility: 31.05.2020 10:00:00 - 06.06.2020 10:00:00 (MST)Phoenix, az, United States of America (2072126): precipitation: 31.05.2020 10:00:00 - 06.06.2020 10:00:00 (MST)
Date & Time tt [°C] td [°C] ff [km/h] ff [kn] dd ppp [hPa] vv [km] rr [mm]
06.06.2020 10:00:00 25,0 11,7 9 5 - 1008,9 16 -
06.06.2020 09:00:00 23,3 11,1 5 3 - 1009,2 16 -
06.06.2020 08:00:00 22,8 11,7 9 5 W 1008,8 16 -
06.06.2020 07:00:00 21,7 12,8 13 7 SSW 1008,1 16 -
06.06.2020 06:00:00 21,1 12,8 13 7 SW 1007,0 16 -
06.06.2020 05:00:00 21,7 11,7 22 12 SW 1006,2 16 -
06.06.2020 04:00:00 22,2 10,6 18 10 SW 1005,2 16 -
06.06.2020 03:00:00 22,8 8,9 13 7 WSW 1004,2 16 -
06.06.2020 02:00:00 24,4 7,2 28 15 SW 1003,9 16 -
06.06.2020 01:00:00 27,2 2,2 21 11 WSW 1003,4 16 -
06.06.2020 00:00:00 28,3 1,1 18 10 WSW 1002,8 16 -
05.06.2020 23:00:00 28,9 1,7 18 10 WSW 1002,4 16 -
05.06.2020 22:00:00 31,1 2,2 28 15 WSW 1001,6 16 0,0
05.06.2020 21:00:00 32,8 0,0 5 3 WSW 1000,5 16 0,0
05.06.2020 20:00:00 34,4 -2,2 9 5 SSW 1000,0 16 -
05.06.2020 19:00:00 35,0 -2,2 18 10 WSW 1000,0 16 -
05.06.2020 18:00:00 36,7 -1,1 28 15 WSW 1000,1 16 -
05.06.2020 17:00:00 38,9 3,3 15 8 SSE 1000,1 16 -
05.06.2020 16:00:00 38,9 3,9 13 7 E 1000,3 16 -
05.06.2020 15:00:00 37,8 4,4 16 9 ESE 1001,6 16 -
05.06.2020 14:00:00 37,2 4,4 15 8 SSE 1002,2 16 -
05.06.2020 13:00:00 36,7 5,0 24 13 S 1003,6 16 -
05.06.2020 12:00:00 37,2 4,4 22 12 S 1003,5 16 -
05.06.2020 11:00:00 35,6 3,9 5 3 - 1004,0 16 -
05.06.2020 10:00:00 35,0 2,8 5 3 NE 1004,1 16 -
05.06.2020 09:00:00 33,3 2,8 0 0 N 1004,2 16 -
05.06.2020 08:00:00 33,3 3,9 0 0 N 1004,2 16 -
05.06.2020 07:00:00 28,9 6,7 0 0 N 1004,0 16 -
05.06.2020 06:00:00 26,1 6,1 0 0 N 1003,8 16 -
05.06.2020 05:00:00 27,8 5,0 0 0 N 1003,2 11 -
05.06.2020 04:00:00 28,9 6,1 0 0 N 1002,9 16 -
05.06.2020 03:00:00 29,4 5,6 0 0 N 1002,7 16 -
05.06.2020 02:00:00 31,1 5,6 5 3 S 1003,0 16 -
05.06.2020 01:00:00 31,7 5,6 0 0 N 1002,8 16 -
05.06.2020 00:00:00 33,3 6,1 5 3 WNW 1003,2 16 -
04.06.2020 23:00:00 34,4 6,7 15 8 WSW 1003,0 16 -
04.06.2020 22:00:00 36,1 6,7 26 14 SW 1002,7 16 -
04.06.2020 21:00:00 36,1 7,8 8 4 W 1001,7 16 -
04.06.2020 20:00:00 38,3 6,1 0 0 N 1001,4 16 -
04.06.2020 19:00:00 40,0 6,1 9 5 - 1001,4 16 -
04.06.2020 18:00:00 40,6 5,6 9 5 S 1001,4 16 -
04.06.2020 17:00:00 41,1 6,1 9 5 SSW 1001,9 16 -
04.06.2020 16:00:00 40,6 6,1 5 3 - 1002,5 16 -
04.06.2020 15:00:00 41,7 6,1 13 7 SW 1003,4 16 -
04.06.2020 14:00:00 41,1 7,2 13 7 SW 1004,3 16 -
04.06.2020 13:00:00 40,0 8,3 9 5 SSE 1005,2 16 -
04.06.2020 12:00:00 37,2 7,8 9 5 S 1006,0 16 -
04.06.2020 11:00:00 36,7 8,3 9 5 - 1006,7 16 -
04.06.2020 10:00:00 35,0 7,8 5 3 - 1006,9 16 -
04.06.2020 09:00:00 33,9 7,8 11 6 SSE 1007,0 16 -
04.06.2020 08:00:00 31,7 8,9 8 4 S 1007,0 16 -
04.06.2020 07:00:00 30,0 8,3 8 4 E 1006,3 16 -
04.06.2020 06:00:00 27,2 7,8 5 3 ESE 1005,9 16 -
04.06.2020 05:00:00 27,8 7,2 9 5 ESE 1005,2 16 -
04.06.2020 04:00:00 27,8 7,2 0 0 N 1005,0 16 -
04.06.2020 03:00:00 27,2 6,7 0 0 N 1004,9 16 -
04.06.2020 02:00:00 27,2 5,0 0 0 N 1004,8 16 -
04.06.2020 01:00:00 28,9 5,0 0 0 N 1005,0 16 -
04.06.2020 00:00:00 32,2 5,6 8 4 N 1005,3 16 -
03.06.2020 23:00:00 32,8 5,6 5 3 N - 16 -
03.06.2020 22:00:00 33,9 6,1 0 0 N 1005,1 16 -
03.06.2020 21:00:00 36,1 5,6 8 4 WSW 1004,6 16 -
03.06.2020 20:00:00 38,3 5,0 9 5 SSW 1004,2 16 -
03.06.2020 19:00:00 40,0 4,4 18 10 SW 1004,0 16 -
03.06.2020 18:00:00 40,6 5,0 13 7 SSW 1003,9 16 -
03.06.2020 17:00:00 42,2 5,0 18 10 WSW 1004,2 16 -
03.06.2020 16:00:00 41,1 5,6 9 5 WSW 1004,8 16 -
03.06.2020 15:00:00 41,1 5,6 9 5 - 1005,7 16 -
03.06.2020 14:00:00 40,6 5,6 13 7 WSW 1006,6 16 -
03.06.2020 13:00:00 39,4 6,1 9 5 SSW 1007,5 16 -
03.06.2020 12:00:00 38,3 6,7 9 5 - 1008,3 10 -
03.06.2020 11:00:00 37,0 5,0 9 5 SE - 16 -
03.06.2020 10:00:00 35,0 8,3 8 4 - 1009,1 16 -
03.06.2020 09:00:00 32,8 8,9 8 4 SSE 1009,3 16 -
03.06.2020 08:00:00 31,7 8,3 13 7 SSE 1009,1 16 -
03.06.2020 07:00:00 29,4 8,3 9 5 SE 1008,3 16 -
03.06.2020 06:00:00 28,3 7,2 13 7 E 1008,0 16 -
03.06.2020 05:00:00 27,8 6,1 0 0 N 1007,4 16 -
03.06.2020 04:00:00 28,9 5,0 0 0 N 1006,9 16 -
03.06.2020 03:00:00 29,4 5,0 0 0 N 1007,1 16 -
03.06.2020 02:00:00 30,0 5,6 0 0 N 1007,3 16 -
03.06.2020 01:00:00 30,6 4,4 5 3 N 1007,8 16 -
03.06.2020 00:00:00 31,7 4,4 0 0 N 1008,4 16 -
02.06.2020 23:00:00 32,2 3,9 0 0 N 1008,4 16 -
02.06.2020 22:00:00 33,3 3,9 9 5 WNW 1008,1 16 -
02.06.2020 21:00:00 36,1 3,9 11 6 W 1007,7 16 -
02.06.2020 20:00:00 37,2 5,0 11 6 WSW 1006,9 16 -
02.06.2020 19:00:00 38,9 3,3 18 10 WSW 1006,5 16 -
02.06.2020 18:00:00 40,0 2,8 21 11 WSW 1005,9 16 -
02.06.2020 17:00:00 40,6 2,8 24 13 SW 1006,1 16 -
02.06.2020 16:00:00 40,6 2,2 21 11 SW 1006,7 16 -
02.06.2020 15:00:00 39,4 2,2 13 7 SW 1007,6 16 -
02.06.2020 14:00:00 39,4 2,2 13 7 SW 1008,4 16 -
02.06.2020 13:00:00 38,3 2,8 22 12 WSW 1009,2 16 -
02.06.2020 12:00:00 37,2 2,8 - - - 1010,0 16 -
02.06.2020 11:00:00 35,6 3,9 11 6 WNW 1010,7 16 -
02.06.2020 10:00:00 33,9 3,9 8 4 - 1011,1 16 -
02.06.2020 09:00:00 32,8 7,8 0 0 N 1011,6 16 -
02.06.2020 08:00:00 32,2 6,1 5 3 NE 1011,6 16 -
02.06.2020 07:00:00 28,9 4,4 8 4 E 1011,3 16 -
02.06.2020 06:00:00 28,3 4,4 0 0 N 1010,9 15 -
02.06.2020 05:00:00 27,8 3,9 5 3 ESE 1009,9 16 -
02.06.2020 04:00:00 28,9 2,8 0 0 N 1009,5 16 -
02.06.2020 03:00:00 29,4 3,3 8 4 S 1009,6 16 -
02.06.2020 02:00:00 29,4 5,0 8 4 NNW 1009,4 16 -
02.06.2020 01:00:00 30,0 7,2 9 5 NNE 1009,3 16 -
02.06.2020 00:00:00 31,7 8,3 15 8 W 1009,0 16 -
01.06.2020 23:00:00 32,8 6,1 16 9 WSW 1008,8 16 -
01.06.2020 22:00:00 32,2 1,7 5 3 NNW 1008,0 16 -
01.06.2020 21:00:00 33,9 1,7 5 3 W 1007,5 16 -
01.06.2020 20:00:00 35,0 1,7 9 5 WNW 1006,6 16 -
01.06.2020 19:00:00 37,8 1,7 21 11 W 1005,7 16 -
01.06.2020 18:00:00 38,3 3,3 13 7 W 1005,7 16 -
01.06.2020 17:00:00 38,9 5,0 13 7 W 1005,9 16 -
01.06.2020 16:00:00 38,9 4,4 18 10 WSW 1006,5 16 -
01.06.2020 15:00:00 37,8 5,6 13 7 WSW 1007,5 16 -
01.06.2020 14:00:00 37,2 4,4 11 6 W 1008,3 16 -
01.06.2020 13:00:00 36,1 4,4 11 6 - 1009,3 16 -
01.06.2020 12:00:00 35,0 4,4 5 3 WNW 1010,1 16 -
01.06.2020 11:00:00 33,9 3,9 8 4 - 1010,7 16 -
01.06.2020 10:00:00 32,8 3,3 8 4 SSW 1010,8 16 -
01.06.2020 09:00:00 32,2 3,3 11 6 - 1010,9 16 -
01.06.2020 08:00:00 30,0 3,9 8 4 NW 1010,8 16 -
01.06.2020 07:00:00 27,2 1,7 11 6 NNE 1010,5 15 -
01.06.2020 06:00:00 23,9 2,2 9 5 NNE 1010,1 10 -
01.06.2020 05:00:00 24,4 1,7 0 0 N 1009,1 16 -
01.06.2020 04:00:00 23,9 2,2 0 0 N 1008,5 16 -
01.06.2020 03:00:00 24,4 2,8 5 3 NNE 1008,2 16 -
01.06.2020 02:00:00 27,2 2,8 0 0 N 1008,1 16 -
01.06.2020 01:00:00 27,8 1,1 8 4 N 1008,0 16 -
01.06.2020 00:00:00 30,0 0,6 5 3 NNW 1008,0 16 -
31.05.2020 23:00:00 31,7 1,1 9 5 WSW 1007,5 16 -
31.05.2020 22:00:00 32,8 2,8 9 5 WSW 1007,3 16 -
31.05.2020 21:00:00 33,9 4,4 13 7 SW 1006,1 16 -
31.05.2020 20:00:00 35,6 0,6 13 7 SW 1005,1 16 -
31.05.2020 19:00:00 37,2 2,2 26 14 WSW 1004,6 16 -
31.05.2020 18:00:00 38,3 2,2 18 10 WSW 1004,6 16 -
31.05.2020 17:00:00 40,6 7,8 18 10 WNW 1002,9 16 -
31.05.2020 16:00:00 39,4 3,3 18 10 WSW 1005,1 16 -
31.05.2020 15:00:00 38,9 6,1 15 8 SW 1005,8 16 -
31.05.2020 14:00:00 37,8 7,2 15 8 W 1006,6 16 -
31.05.2020 13:00:00 37,2 6,7 18 10 SW 1007,4 16 -
31.05.2020 12:00:00 36,7 6,1 13 7 W 1007,9 16 -
31.05.2020 11:00:00 35,0 5,0 8 4 - 1008,4 16 -
31.05.2020 10:00:00 33,9 3,3 11 6 WSW 1008,6 16 -

tt = temperature
td = dewpoint
ff = wind speed
dd = wind direction
ppp = reduced air pressure
vv = visibility
rr = precipitation

Next stations